7 * 24
多渠道服务支持
STARLINK-37715(NORAD编号69126)是美国SpaceX公司星链(Starlink)星座的一颗低轨通信卫星,隶属于星链全球卫星互联网组网项目。 星链卫星运行于近地轨道,单颗卫星可覆盖直径约80至100公里区域,该卫星采用相控阵天线技术,支持激光星间链路,可为用户提供高速低延迟宽带服务,手机直连场景下下行速率可达4.4至18.3Mbps,传统终端下行速率最高达301Mbps,平均时延低于50ms。 作为星链大规模组网的组成部分,它承担着全球互联网覆盖的任务,但也因低轨卫星星座规模扩张,引发天文观测干扰和太空交通安全的争议。
美国
(US)
| 数据来源 | 国际轨道数据 |
| 星历时间: | 2026-07-27T10:38:08+0800 21小时前 查看轨道信息 |
| 半长轴: | 6843.693km |
| 偏心率: | 0.0002367 |
| 轨道倾角: | 97.285° |
| 近地点辐角 | 73.470° |
| 升交点赤经 | 43.895° |
| 平近点角 | 286.680° |
| 近地点: | 463.936km |
| 远地点: | 467.176km |
| 周期: | 93.906分钟 |
| 每日圈数: | 15.334409 |